Location: Haut Kerinec
(48.0623°N, 4.4081°W)
Time: 18:23:44
(UTC+00:00)

Cosmos 1503 Rocket - Pass Details

Date: 01 June 2020
Orbit: 752 x 791 km, 74.0° (Epoch: 01 July)

Event Time Altitude Azimuth Distance (km) Brightness Sun altitude
Rises 22:26:49 0° 340° (NNW) 3,262 9.1 -15.6°
Reaches altitude 10° 22:29:15 10° 345° (NNW) 2,337 7.8 -15.8°
Maximum altitude 22:34:28 55° 63° (ENE) 941 4.4 -16.2°
Enters shadow 22:37:33 24° 132° (SE) 1,582 5.1 -16.4°
